Regional Weather Roundup
Issued by NWS

Home | Current Version | Previous Version | Text Only | Print | Product List | Glossary Off
Versions: 1 2 3 4 5 6 7 8 9 10 11 12 13 14 15 16 17 18 19 20 21 22 23 24 25 26 27 28 29 30 31 32 33 34 35 36 37 38 39 40 41 42 43 44 45 46 47 48 49 50

000
ASUS45 KBOU 060607
RWRCO

WEATHER ROUNDUP FOR COLORADO
NATIONAL WEATHER SERVICE DENVER/BOULDER CO
1200 AM MDT WED MAY 06 2015

NOTE: "FAIR" INDICATES FEW OR NO CLOUDS BELOW 12000 FEET WITH NO
SIGNIFICANT WEATHER AND/OR OBSTRUCTIONS TO VISIBILITY.

COZ001>005-013-030-031-060700-
...NORTHWEST COLORADO...

CITY           SKY/WX    TMP DP  RH WIND       PRES   REMARKS
CRAIG          CLOUDY    51  46  83 W7        29.82F
HAYDEN         NOT AVBL
MEEKER         RAIN      48  44  86 SW7       29.85S FOG
MOUNT WERNER   NOT AVBL
STEAMBOAT SPGS CLOUDY    46  41  82 E6        29.83F
WALDEN         CLOUDY    41  37  87 SE5       29.85S
$$

COZ006>008-011-060700-
...WEST CENTRAL VALLEYS...

CITY           SKY/WX    TMP DP  RH WIND       PRES   REMARKS
GRAND JUNCTION CLOUDY    52  51  97 NW5       29.82S
MONTROSE       CLOUDY    51  49  92 SE6       29.87S
EAGLE          CLOUDY    46  43  87 CALM      29.89S
RIFLE          LGT RAIN  49  46  90 E6        29.84S
DELTA          CLOUDY    54  52  94 CALM      29.84S
NUCLA          CLOUDY    50  46  87 CALM      29.91S
$$

COZ017>023-064>068-060700-
...SOUTHWEST COLORADO...

CITY           SKY/WX    TMP DP  RH WIND       PRES   REMARKS
DURANGO        RAIN      45  44  97 W6        29.93S FOG
CORTEZ         MOCLDY    48  46  93 CALM      29.91S
PAGOSA SPRINGS CLOUDY    45  45  99 SW3       29.96S
TELLURIDE      RAIN      40  40 100 CALM      30.00S
WOLF CREEK PAS NOT AVBL
$$

COZ009-010-012-014-032>034-037-058>063-060700-
...CENTRAL COLORADO...

CITY           SKY/WX    TMP DP  RH WIND       PRES   REMARKS
ASPEN          LGT RAIN N/A N/A N/A CALM      29.90S
BUENA VISTA    NOT AVBL
COPPER MTN     CLOUDY    34  32  93 W9        30.01S WCI  26
BERTHOUD PASS  HAZE      28  21  74 NW16      30.02F VSB<1/4 WCI  17
COTTONWOOD PAS FOG       39  37  93 CALM      29.94S VSB 1/2
GUNNISON       CLOUDY    43  37  81 N5        29.93S
KREMMLING      LGT RAIN  41  36  81 SW9G16    29.87S
LEADVILLE      LGT RAIN  35  35 100 NE3       29.92F
MONARCH PASS   CLOUDY    32  30  93 MISG      30.10F
SALIDA         CLOUDY    45  43  91 NW5       29.93F
SUNLIGHT       LGT SNOW  34  34 100 CALM      30.02S VSB 1
WILKERSON PASS LGT SNOW  32  32 100 W7        29.99F VSB 3/4 WCI  26
$$

COZ069>075-060700-
...SAN LUIS VALLEY/SANGRE DE CRISTO MOUNTAINS...

CITY           SKY/WX    TMP DP  RH WIND       PRES   REMARKS
ALAMOSA        MOCLDY    43  41  93 E3        29.89F
LA VETA PASS   DRIZZLE  N/A N/A N/A MISG      29.94R
SAGUACHE       DRIZZLE   43  41  93 S5        29.91F
$$

COZ035-036-038>040-060700-
...NORTHERN COLORADO FRONT RANGE...

CITY           SKY/WX    TMP DP  RH WIND       PRES   REMARKS
DENVER INTL AP LGT RAIN  50  48  93 W12       29.75F FOG
DMNS CITY PARK   N/A     49  48  95 W3        29.76F
AURORA         CLOUDY    48  48 100 W7        29.77F
FRONT RANGE AP DRIZZLE   50  50 100 W8        29.76F
ERIE MUNI ARPT CLOUDY    49  49  97 NW3       29.76F
BOULDER MUN AP CLOUDY    50  48  93 CALM      29.76F
CENTENNIAL     LGT RAIN  48  47  96 NW5       29.78F
BROOMFIELD     CLOUDY    48  48 100 NW5       29.78S
FORT COLLINS   CLOUDY    50  48  93 N8        29.77F
LONGMONT       CLOUDY    51  49  92 CALM      29.78S
$$

COZ041-046-047-076>085-087-088-060700-
...PIKES PEAK/PALMER DIVIDE AND SOUTHERN FOOTHILLS...

CITY           SKY/WX    TMP DP  RH WIND       PRES   REMARKS
COLO. SPRINGS  LGT RAIN  48  43  82 SW5       29.81F
A. F. ACADEMY  DRIZZLE   45  45 100 S5        29.80F
ELLICOTT       CLOUDY   N/A N/A N/A SW3       29.79F
FALCON         CLOUDY    46  43  89 SW3       29.83S
FORT CARSON    LGT RAIN  47  45  90 W6        29.78F
LIMON          CLOUDY    49  47  93 W6        29.76S
MONUMENT HILL  DRIZZLE   43  43 100 W8        29.81S
TRINIDAD       MOCLDY    47  46  97 W7        29.81F
$$

COZ042>045-048>051-090-091-060700-
...NORTHEAST COLORADO...

CITY           SKY/WX    TMP DP  RH WIND       PRES   REMARKS
GREELEY ARPT     N/A    N/A N/A N/A MISG        N/A
AKRON          CLOUDY    51  51 100 SE17G25   29.69F
BURLINGTON     CLOUDY    52  50  93 S20       29.75S
WRAY           MOCLDY   N/A N/A N/A SE10      29.73F
STERLING       CLOUDY    54  52  94 E8        29.71F
HOLYOKE        NOT AVBL
FORT MORGAN    LGT RAIN  53  51  94 NE13G18   29.70F
$$

COZ086-089-092>099-060700-
...SOUTHEAST COLORADO...

CITY           SKY/WX    TMP DP  RH WIND       PRES   REMARKS
PUEBLO         CLOUDY    51  49  92 CALM      29.77F
LA JUNTA       CLOUDY    55  51  86 W9        29.75F
LAMAR          CLOUDY    54  51  90 SW7       29.74F
SPRINGFIELD      N/A     48  47  96 CALM      29.78F
$$


USA.gov is the U.S. government's official web portal to all federal, state and local government web resources and services.